Back to catalog

FENGYUN 1C DEB

AliveSSO
NORAD 37046·DEBRIS·🇨🇳 China

Launched May 10, 1999 from Taiyuan Satellite Launch Center

Loading…

Next Passes (next 24 hours)

TLE

AgingSource: Space-Track

Epoch: Sep 10, 2026, 06:19 UTC

1 37046U 99025EEE 26253.26360194  .00000943  00000-0  41099-3 0  9996
2 37046  98.5366 265.3477 0048297 233.5760 126.0962 14.25653086680492

Track FENGYUN 1C DEB in real time with AllMySat

Download on the App Store